Regional Weather Roundup
Issued by NWS State College, PA

Home | Current Version | Previous Version | Text Only | Print | Product List | Glossary On
Versions: 1 2 3 4 5 6 7 8 9 10 11 12 13 14 15 16 17 18 19 20 21 22 23 24 25 26 27 28 29 30 31 32 33 34 35 36 37 38 39 40 41 42 43 44 45 46 47 48 49 50
000
ASUS41 KCTP 191610
RWRCTP

REGIONAL WEATHER ROUNDUP
NATIONAL WEATHER SERVICE STATE COLLEGE PA
1200 PM EDT FRI SEP 19 2014

Note: "fair" indicates few or no clouds below 12,000 feet with no
significant weather and/or obstructions to visibility.

* = STATION THAT DOES NOT REPORT PRECIPITATION /E.G. RAIN...SNOW...ETC/
    THUNDER OR FOG.

PAZ002>004-007>009-013>016-020>023-029>032-191700-
WESTERN PENNSYLVANIA

CITY           SKY/WX    TMP DP  RH WIND       PRES   REMARKS
ERIE           SUNNY     60  46  59 S5        30.28F
MEADVILLE      SUNNY     58  46  64 VRB6      30.27F
FRANKLIN*      SUNNY     61  46  59 NE8       30.28F
NEW CASTLE     NOT AVBL
BEAVER COUNTY  SUNNY     64  50  59 E5        30.24F
BUTLER*        SUNNY     63  52  67 E6        30.26S
PITTSBURGH INT MOSUNNY   65  50  58 E6        30.22F
PITTSBURGH     SUNNY     66  49  54 E8        30.22F
INDIANA*       SUNNY     64  50  59 SE9       30.28F
LATROBE        MOSUNNY   66  54  63 E7        30.24F
WASHINGTON CO* SUNNY     66  52  59 E5        30.22F
$$

PAZ004>006-010>012-017>019-024>028-033>037-041-042-045-046-049>053-191700-
CENTRAL PENNSYLVANIA

CITY           SKY/WX    TMP DP  RH WIND       PRES   REMARKS
BRADFORD       SUNNY     56  43  61 VRB3      30.29F
DUBOIS         SUNNY     59  48  67 SE9       30.27F
CLEARFIELD     SUNNY     60  49  66 NE7       30.29F
JOHNSTOWN      SUNNY     61  48  62 S12       30.26S
ALTOONA        MOSUNNY   62  49  62 VRB5      30.29S
STATE COLLEGE  MOSUNNY   59  50  72 NE9       30.30F
WILLIAMSPORT   SUNNY     60  41  49 E5        30.31F
SELINSGROVE    SUNNY     63  45  51 VRB5      30.31F
FT INDIANTOWN  MOSUNNY   65  48  54 VRB6      30.31S
CAPITAL CITY   SUNNY     65  48  54 SE9       30.31R
HARRISBURG     SUNNY     67  49  52 VRB7      30.30R
YORK           SUNNY     66  51  58 NE9       30.30R
$$

PAZ038>040-043-044-047-048-054-055-060>062-067>071-191700-
EASTERN PENNSYLVANIA

CITY           SKY/WX    TMP DP  RH WIND       PRES   REMARKS
SCRANTON       SUNNY     60  42  51 N5        30.32F
MOUNT POCONO   MOSUNNY   54  44  69 SE10      30.32S
ALLENTOWN      MOSUNNY   62  46  55 E6        30.33S
QUAKERTOWN*    MOSUNNY   63  48  59 E9        30.33S
READING        SUNNY     65  48  54 E10       30.30S
LANCASTER      MOSUNNY   64  48  56 NE9       30.31R
COATESVILLE    PTSUNNY   63  52  67 E7        30.32R
POTTSTOWN      CLOUDY    62  50  64 VRB6      30.33R
BLUE BELL      PTSUNNY   64  52  63 E6        30.31S
DOYLESTOWN     PTSUNNY   61  48  62 VRB6      30.32S
WILLOW GROVE   NOT AVBL
NORTH PHILA      N/A     66  46  48 MISG      30.34R
PHILADELPHIA   CLOUDY    65  52  62 NE12      30.32R
$$


USA.gov is the U.S. government's official web portal to all federal, state and local government web resources and services.